1536537601.02,45811,17.88,74434.8,1.33,-7.39,-7.73,0,*7B
1536537602.27,45812,17.88,74432.0,1.33,-7.39,-7.69,0,*73
1536537603.51,45813,17.88,74436.3,1.33,-7.39,-7.83,0,*76
1536537604.75,45814,17.88,74434.3,1.35,-7.35,-7.69,0,*7F
1536537605.98,45815,17.88,74432.8,1.35,-7.39,-7.77,0,*7D
1536537607.25,45816,17.88,74432.8,1.33,-7.43,-7.73,0,*71
1536537608.51,45817,17.81,74432.3,1.33,-7.31,-7.69,0,*7E
1536537609.72,45818,17.88,74434.0,1.35,-7.23,-7.65,0,*78
1536537610.98,45819,17.88,74434.8,1.33,-7.39,-7.73,0,*73
1536537612.22,45820,17.88,74434.3,1.33,-7.39,-7.83,0,*76
1536537613.48,45821,17.88,74432.3,1.33,-7.39,-7.61,0,*7B
1536537614.72,45822,17.88,74434.5,1.35,-7.27,-7.65,0,*75
1536537615.95,45823,17.88,74432.8,1.33,-7.39,-7.83,0,*75
1536537617.22,45824,17.81,74432.5,1.33,-7.43,-7.73,0,*70
1536537618.48,45825,17.88,74436.5,1.33,-7.39,-7.73,0,*7C
1536537619.72,45826,17.81,74434.5,1.33,-7.39,-7.83,0,*70
1536537620.94,45827,17.88,74432.5,1.31,-7.43,-7.83,0,*7E
1536537622.17,45828,17.88,74432.3,1.33,-7.39,-7.83,0,*7E
1536537623.43,45829,17.81,74432.8,1.33,-7.31,-7.69,0,*73
1536537624.69,45830,17.81,74434.0,1.33,-7.27,-7.69,0,*7C
1536537625.94,45831,17.88,74432.3,1.33,-7.43,-7.83,0,*7B
1536537627.17,45832,17.88,74432.5,1.33,-7.39,-7.83,0,*75
1536537628.42,45833,17.88,74432.0,1.33,-7.43,-7.83,0,*79
1536537629.65,45834,17.88,74436.3,1.33,-7.39,-7.83,0,*73
1536537630.89,45835,17.88,74434.5,1.33,-7.39,-7.83,0,*72
1536537632.13,45836,17.88,74434.0,1.33,-7.43,-7.83,0,*7C
1536537633.37,45837,17.88,74432.8,1.33,-7.39,-7.83,0,*70
1536537634.61,45838,17.88,74432.8,1.33,-7.39,-7.83,0,*7F
1536537635.85,45839,17.88,74434.5,1.33,-7.43,-7.83,0,*73
1536537637.09,45840,17.81,74430.5,1.33,-7.31,-7.83,0,*78
1536537638.33,45841,17.88,74432.8,1.33,-7.31,-7.83,0,*79
1536537639.59,45842,17.88,74434.8,1.33,-7.27,-7.73,0,*72
1536537640.83,45843,17.88,74434.8,1.33,-7.31,-7.83,0,*7B
1536537642.05,45844,17.81,74430.0,1.31,-7.39,-7.83,0,*76
1536537643.29,45845,17.88,74432.8,1.33,-7.31,-7.83,0,*7D
1536537644.52,45846,17.88,74432.8,1.33,-7.39,-7.83,0,*76
1536537645.76,45847,17.88,74436.0,1.33,-7.39,-7.83,0,*77
1536537647.0,45848,17.88,74434.3,1.33,-7.39,-7.83,0,*78
1536537648.24,45849,17.88,74432.3,1.33,-7.43,-7.83,0,*74
1536537649.47,45850,17.88,74432.3,1.33,-7.39,-7.87,0,*75
1536537650.72,45851,17.88,74434.5,1.33,-7.43,-7.87,0,*79
1536537651.95,45852,17.81,74434.0,1.33,-7.39,-7.87,0,*77
1536537653.22,45853,17.81,74432.5,1.33,-7.31,-7.73,0,*75
1536537654.48,45854,17.88,74432.5,1.33,-7.27,-7.73,0,*75
1536537655.72,45855,17.81,74430.8,1.33,-7.39,-7.83,0,*74
1536537656.95,45856,17.88,74434.0,1.33,-7.39,-7.87,0,*73
1536537658.19,45857,17.88,74432.3,1.33,-7.39,-7.87,0,*72
1536537659.43,45858,17.81,74432.3,1.33,-7.31,-7.83,0,*71
1536537660.67,45859,17.88,74432.5,1.33,-7.43,-7.87,0,*71
1536537661.91,45860,17.88,74432.0,1.33,-7.31,-7.87,0,*7E
1536537663.15,45861,17.81,74428.5,1.33,-7.39,-7.87,0,*77
1536537664.39,45862,17.81,74432.3,1.33,-7.43,-7.87,0,*79
1536537665.63,45863,17.88,74434.0,1.33,-7.43,-7.87,0,*78
1536537666.88,45864,17.88,74434.0,1.33,-7.43,-7.87,0,*7F
1536537668.12,45865,17.88,74432.8,1.33,-7.43,-7.87,0,*7E
1536537669.36,45866,17.88,74432.0,1.33,-7.39,-7.83,0,*74
1536537670.59,45867,17.81,74434.5,1.33,-7.39,-7.83,0,*75
1536537671.84,45868,17.88,74432.8,1.33,-7.43,-7.87,0,*73
1536537673.08,45869,17.88,74434.0,1.31,-7.43,-7.95,0,*73
1536537674.34,45870,17.88,74434.5,1.33,-7.43,-7.95,0,*79
1536537675.6,45871,17.88,74432.0,1.33,-7.43,-7.99,0,*74
1536537676.86,45872,17.88,74434.0,1.33,-7.43,-7.95,0,*7B
1536537678.08,45873,17.88,74434.5,1.31,-7.43,-7.87,0,*7B
1536537679.32,45874,17.81,74432.0,1.31,-7.43,-7.95,0,*7F
1536537680.54,45875,17.81,74434.5,1.31,-7.53,-7.99,0,*73
1536537681.78,45876,17.88,74432.0,1.33,-7.43,-7.87,0,*7C
1536537683.04,45877,17.81,74432.0,1.33,-7.43,-7.95,0,*7E
1536537684.28,45878,17.88,74432.0,1.31,-7.43,-7.95,0,*73
1536537685.49,45879,17.88,74434.0,1.31,-7.53,-7.95,0,*73
1536537686.73,45880,17.81,74432.0,1.31,-7.43,-7.95,0,*74
1536537687.94,45881,17.81,74434.3,1.31,-7.53,-7.95,0,*74
1536537689.18,45882,17.81,74428.5,1.31,-7.43,-7.95,0,*76
1536537690.42,45883,17.81,74432.0,1.31,-7.43,-7.95,0,*77
1536537691.68,45884,17.88,74434.5,1.33,-7.43,-7.95,0,*72
1536537692.9,45885,17.88,74432.8,1.31,-7.53,-7.99,0,*7C
1536537694.15,45886,17.88,74434.0,1.31,-7.57,-8.07,0,*73
1536537695.4,45887,17.88,74432.8,1.31,-7.57,-7.99,0,*7A
1536537696.63,45888,17.88,74432.0,1.33,-7.53,-7.99,0,*73
1536537697.9,45889,17.81,74432.3,1.33,-7.57,-7.99,0,*76
1536537699.15,45890,17.88,74432.5,1.31,-7.57,-8.07,0,*74
1536537700.37,45891,17.81,74434.0,1.31,-7.53,-7.99,0,*79
1536537701.59,45892,17.81,74430.0,1.31,-7.53,-8.07,0,*72
1536537702.81,45893,17.88,74434.8,1.31,-7.53,-8.07,0,*73
1536537704.03,45894,17.88,74434.0,1.31,-7.53,-8.07,0,*74
1536537705.29,45895,17.88,74432.0,1.31,-7.57,-8.07,0,*71
1536537706.5,45896,17.81,74432.5,1.31,-7.53,-8.11,0,*71
1536537707.75,45897,17.81,74430.5,1.31,-7.57,-7.99,0,*7B
1536537708.99,45898,17.88,74434.8,1.31,-7.57,-7.99,0,*74
1536537710.23,45899,17.81,74432.5,1.29,-7.61,-8.17,0,*70
1536537711.45,45900,17.88,74434.8,1.31,-7.53,-7.99,0,*70
1536537712.66,45901,17.81,74432.3,1.31,-7.53,-7.99,0,*71
1536537713.9,45902,17.81,74430.8,1.29,-7.49,-7.91,0,*78
1536537715.16,45903,17.88,74434.8,1.29,-7.61,-8.03,0,*77
1536537716.43,45904,17.81,74430.5,1.29,-7.57,-8.11,0,*76
1536537717.7,45905,17.88,74434.0,1.29,-7.61,-8.11,0,*72
1536537718.92,45906,17.81,74432.5,1.31,-7.53,-8.07,0,*7E
1536537720.19,45907,17.88,74432.8,1.29,-7.57,-8.11,0,*75
1536537721.45,45908,17.88,74432.5,1.29,-7.57,-8.03,0,*79
1536537722.72,45909,17.81,74434.3,1.29,-7.57,-8.03,0,*78
1536537723.96,45910,17.81,74428.5,1.29,-7.61,-8.17,0,*70
1536537725.22,45911,17.81,74432.5,1.29,-7.57,-8.03,0,*71
1536537726.49,45912,17.81,74434.0,1.29,-7.57,-8.03,0,*72
1536537727.75,45913,17.81,74430.8,1.29,-7.61,-8.03,0,*76
1536537729.02,45914,17.81,74434.5,1.29,-7.57,-8.03,0,*74
1536537730.26,45915,17.88,74432.8,1.29,-7.61,-8.25,0,*74
1536537731.5,45916,17.88,74434.8,1.29,-7.61,-8.17,0,*76
1536537732.71,45917,17.81,74428.8,1.31,-7.53,-7.99,0,*76
1536537733.95,45918,17.88,74434.5,1.29,-7.49,-7.99,0,*7B
1536537735.21,45919,17.81,74434.8,1.29,-7.57,-8.03,0,*79
1536537736.48,45920,17.88,74434.8,1.29,-7.57,-8.11,0,*70
1536537737.75,45921,17.81,74428.0,1.29,-7.61,-8.11,0,*74
1536537739.0,45922,17.88,74434.3,1.31,-7.57,-8.07,0,*7C
1536537740.24,45923,17.81,74432.3,1.29,-7.61,-8.17,0,*70
1536537741.51,45924,17.81,74432.3,1.29,-7.61,-8.11,0,*71
1536537742.75,45925,17.88,74432.5,1.29,-7.61,-8.25,0,*77
1536537744.01,45926,17.81,74430.8,1.29,-7.61,-8.11,0,*73
1536537745.25,45927,17.81,74434.5,1.29,-7.61,-8.17,0,*74
1536537746.52,45928,17.81,74432.5,1.29,-7.57,-8.11,0,*78
1536537747.79,45929,17.81,74434.3,1.29,-7.57,-8.11,0,*79
1536537749.06,45930,17.81,74432.5,1.29,-7.57,-8.11,0,*71
1536537750.28,45931,17.88,74432.3,1.27,-7.65,-8.25,0,*78
1536537751.52,45932,17.81,74432.5,1.29,-7.57,-8.17,0,*75
1536537752.76,45933,17.81,74432.8,1.29,-7.57,-8.17,0,*74
1536537754.0,45934,17.88,74434.3,1.29,-7.65,-8.25,0,*73
1536537755.22,45935,17.88,74432.8,1.27,-7.61,-8.17,0,*79
1536537756.48,45936,17.88,74432.8,1.29,-7.61,-8.11,0,*72
1536537757.75,45937,17.81,74432.8,1.29,-7.57,-8.11,0,*76
1536537759.02,45938,17.88,74432.8,1.29,-7.57,-8.03,0,*7A
1536537760.26,45939,17.81,74432.5,1.29,-7.61,-8.17,0,*7B
1536537761.5,45940,17.81,74434.8,1.29,-7.61,-8.25,0,*74
1536537762.74,45941,17.81,74432.5,1.31,-7.61,-8.11,0,*7B
1536537763.98,45942,17.81,74432.0,1.29,-7.61,-8.17,0,*77
1536537765.22,45943,17.81,74430.8,1.29,-7.65,-8.17,0,*72
1536537766.46,45944,17.81,74434.3,1.29,-7.57,-8.17,0,*74
1536537767.7,45945,17.88,74432.3,1.29,-7.57,-8.17,0,*75
1536537768.94,45946,17.81,74434.8,1.29,-7.61,-8.25,0,*72
1536537770.18,45947,17.88,74436.3,1.29,-7.65,-8.25,0,*77
1536537771.4,45948,17.81,74434.8,1.27,-7.65,-8.17,0,*77
1536537772.64,45949,17.88,74436.8,1.29,-7.57,-8.25,0,*78
1536537773.88,45950,17.81,74434.0,1.29,-7.61,-8.17,0,*74
1536537775.12,45951,17.81,74434.3,1.29,-7.65,-8.25,0,*70
1536537776.36,45952,17.81,74432.5,1.29,-7.73,-8.29,0,*78
1536537777.6,45953,17.88,74436.0,1.29,-7.73,-8.29,0,*79
1536537778.84,45954,17.81,74432.8,1.29,-7.65,-8.25,0,*75
1536537780.08,45955,17.81,74434.5,1.29,-7.65,-8.25,0,*74
1536537781.3,45956,17.81,74434.3,1.27,-7.65,-8.37,0,*7A
1536537782.51,45957,17.81,74434.8,1.27,-7.65,-8.29,0,*74
1536537783.75,45958,17.81,74434.5,1.29,-7.61,-8.17,0,*7C
1536537784.99,45959,17.81,74434.3,1.29,-7.61,-8.25,0,*7C
1536537786.21,45960,17.81,74432.8,1.27,-7.61,-8.25,0,*78
1536537787.45,45961,17.81,74432.0,1.29,-7.65,-8.25,0,*73
1536537788.68,45962,17.88,74432.8,1.29,-7.61,-8.25,0,*74
1536537789.9,45963,17.88,74432.5,1.27,-7.61,-8.25,0,*7B
1536537791.12,45964,17.81,74434.3,1.27,-7.73,-8.29,0,*73
1536537792.36,45965,17.88,74434.5,1.29,-7.65,-8.25,0,*77
1536537793.6,45966,17.81,74434.0,1.29,-7.61,-8.29,0,*7C
1536537794.81,45967,17.81,74432.8,1.27,-7.73,-8.29,0,*70
1536537796.05,45968,17.81,74434.5,1.29,-7.65,-8.25,0,*7A
1536537797.27,45969,17.81,74430.5,1.27,-7.61,-8.25,0,*71
1536537798.52,45970,17.88,74434.0,1.29,-7.73,-8.37,0,*77
1536537799.74,45971,17.81,74432.0,1.27,-7.73,-8.29,0,*77
1536537800.96,45972,17.81,74430.0,1.27,-7.73,-8.37,0,*7B
1536537802.18,45973,17.81,74432.0,1.27,-7.65,-8.29,0,*72
1536537803.39,45974,17.81,74434.3,1.27,-7.65,-8.41,0,*7B
1536537804.62,45975,17.81,74430.5,1.27,-7.73,-8.37,0,*7C
1536537805.84,45976,17.88,74434.0,1.27,-7.73,-8.37,0,*7F
1536537807.11,45977,17.81,74432.3,1.29,-7.73,-8.51,0,*70
1536537808.33,45978,17.81,74430.0,1.27,-7.73,-8.41,0,*70
1536537809.58,45979,17.81,74428.5,1.29,-7.73,-8.37,0,*7E
1536537810.8,45980,17.81,74434.5,1.27,-7.73,-8.29,0,*79
1536537812.04,45981,17.81,74434.3,1.29,-7.65,-8.29,0,*71
1536537813.25,45982,17.81,74432.3,1.27,-7.73,-8.29,0,*7B
1536537814.48,45983,17.81,74432.8,1.27,-7.73,-8.37,0,*75
1536537815.73,45984,17.81,74434.3,1.29,-7.73,-8.37,0,*7C
1536537816.95,45985,17.81,74434.5,1.27,-7.73,-8.41,0,*72
1536537818.19,45986,17.88,74436.5,1.29,-7.65,-8.29,0,*76
1536537819.41,45987,17.81,74430.5,1.27,-7.73,-8.37,0,*71
1536537820.68,45988,17.88,74436.0,1.29,-7.73,-8.51,0,*70
1536537821.9,45989,17.88,74434.0,1.27,-7.73,-8.41,0,*7E
1536537823.12,45990,17.88,74434.8,1.27,-7.73,-8.41,0,*76
1536537824.34,45991,17.81,74432.5,1.27,-7.73,-8.37,0,*76
1536537825.56,45992,17.81,74434.3,1.27,-7.65,-8.29,0,*7D
1536537826.79,45993,17.81,74432.3,1.27,-7.73,-8.37,0,*74
1536537828.0,45994,17.81,74434.0,1.27,-7.73,-8.41,0,*72
1536537829.24,45995,17.81,74428.5,1.29,-7.77,-8.41,0,*79
1536537830.48,45996,17.81,74430.3,1.29,-7.77,-8.41,0,*7A
1536537831.72,45997,17.81,74432.8,1.27,-7.73,-8.51,0,*70
1536537832.96,45998,17.81,74434.3,1.27,-7.77,-8.51,0,*7B
1536537834.18,45999,17.81,74430.8,1.27,-7.77,-8.37,0,*7A
1536537835.44,46000,17.81,74432.5,1.29,-7.77,-8.51,0,*7E
1536537836.68,46001,17.81,74432.3,1.29,-7.65,-8.41,0,*7D
1536537837.9,46002,17.88,74434.0,1.27,-7.77,-8.41,0,*73
1536537839.11,46003,17.81,74434.3,1.27,-7.77,-8.41,0,*72
1536537840.35,46004,17.81,74434.0,1.27,-7.77,-8.51,0,*74
1536537841.59,46005,17.81,74430.0,1.27,-7.77,-8.51,0,*75
1536537842.83,46006,17.81,74430.8,1.27,-7.77,-8.51,0,*76
1536537844.09,46007,17.81,74428.0,1.29,-7.77,-8.51,0,*79
1536537845.33,46008,17.81,74430.3,1.27,-7.77,-8.51,0,*78
1536537846.57,46009,17.81,74432.5,1.27,-7.77,-8.51,0,*79
1536537847.78,46010,17.81,74430.8,1.27,-7.77,-8.41,0,*70
1536537848.99,46011,17.88,74432.8,1.27,-7.77,-8.41,0,*71
1536537850.23,46012,17.81,74430.3,1.27,-7.77,-8.51,0,*73
1536537851.45,46013,17.81,74430.8,1.27,-7.77,-8.41,0,*73
1536537852.68,46014,17.88,74434.8,1.25,-7.69,-8.55,0,*7C
1536537853.9,46015,17.81,74430.0,1.27,-7.65,-8.37,0,*77
1536537855.12,46016,17.81,74430.8,1.27,-7.73,-8.37,0,*73
1536537856.34,46017,17.81,74434.3,1.27,-7.77,-8.41,0,*77
1536537857.58,46018,17.81,74430.0,1.27,-7.77,-8.51,0,*79
1536537858.82,46019,17.81,74430.5,1.27,-7.77,-8.51,0,*78
1536537860.05,46020,17.81,74430.8,1.27,-7.77,-8.51,0,*72
1536537861.29,46021,17.81,74434.8,1.27,-7.77,-8.51,0,*73
1536537862.5,46022,17.88,74434.5,1.27,-7.77,-8.59,0,*78
1536537863.72,46023,17.81,74432.3,1.25,-7.83,-8.45,0,*7D
1536537864.92,46024,17.81,74432.3,1.25,-7.83,-8.55,0,*7B
1536537866.14,46025,17.81,74432.3,1.27,-7.77,-8.41,0,*76
1536537867.33,46026,17.81,74434.5,1.27,-7.87,-8.41,0,*7A
1536537868.51,46027,17.81,74434.5,1.27,-7.87,-8.59,0,*72
1536537869.69,46028,17.81,74432.5,1.27,-7.87,-8.67,0,*70
1536537870.9,46029,17.81,74430.8,1.27,-7.77,-8.59,0,*73
1536537872.11,46030,17.81,74434.0,1.27,-7.77,-8.67,0,*76
1536537873.29,46031,17.81,74430.5,1.27,-7.87,-8.67,0,*78
1536537874.48,46032,17.81,74434.0,1.27,-7.87,-8.59,0,*76
1536537875.71,46033,17.81,74432.3,1.25,-7.91,-8.71,0,*78
1536537876.94,46034,17.81,74434.0,1.25,-7.91,-8.71,0,*7F
1536537878.15,46035,17.88,74434.8,1.25,-7.83,-8.63,0,*7E
1536537879.36,46036,17.81,74432.8,1.23,-7.91,-8.63,0,*78
1536537880.59,46037,17.81,74430.0,1.25,-7.91,-8.71,0,*7C
1536537881.81,46038,17.81,74432.3,1.25,-7.83,-8.63,0,*73
1536537883.04,46039,17.81,74434.0,1.27,-7.77,-8.51,0,*7A
1536537884.25,46040,17.81,74432.3,1.25,-7.83,-8.55,0,*79
1536537885.46,46041,17.81,74432.3,1.25,-7.83,-8.63,0,*7D
1536537886.69,46042,17.81,74432.3,1.25,-7.95,-8.71,0,*7A
1536537887.93,46043,17.81,74428.8,1.25,-7.91,-8.71,0,*7F
1536537889.16,46044,17.81,74432.5,1.25,-7.91,-8.71,0,*78
1536537890.39,46045,17.81,74434.0,1.25,-7.91,-8.63,0,*7A
1536537891.62,46046,17.81,74434.3,1.25,-7.91,-8.63,0,*79
1536537892.83,46047,17.81,74432.3,1.23,-7.95,-8.63,0,*7A
1536537894.04,46048,17.81,74434.8,1.25,-7.83,-8.71,0,*77
1536537895.25,46049,17.81,74432.5,1.25,-7.83,-8.55,0,*70
1536537896.48,46050,17.81,74432.5,1.25,-7.91,-8.71,0,*7D
1536537897.71,46051,17.81,74432.3,1.25,-7.91,-8.71,0,*7C
1536537898.94,46052,17.81,74428.5,1.25,-7.91,-8.63,0,*7C
1536537900.16,46053,17.88,74432.8,1.23,-7.91,-8.71,0,*78
1536537901.39,46054,17.81,74434.0,1.25,-7.95,-8.63,0,*7E
1536537902.62,46055,17.81,74428.0,1.25,-7.95,-8.63,0,*7F
1536537903.85,46056,17.81,74432.5,1.25,-7.91,-8.63,0,*78
1536537905.08,46057,17.81,74434.5,1.25,-7.91,-8.55,0,*7C
1536537906.31,46058,17.81,74432.3,1.25,-7.91,-8.55,0,*73
1536537907.54,46059,17.81,74432.5,1.25,-7.95,-8.63,0,*73
1536537908.78,46060,17.81,74430.0,1.25,-7.95,-8.63,0,*79
1536537910.01,46061,17.81,74432.8,1.25,-7.95,-8.71,0,*7B
1536537911.23,46062,17.81,74432.3,1.23,-7.95,-8.71,0,*7E
1536537912.46,46063,17.81,74430.8,1.25,-7.95,-8.71,0,*79
1536537913.69,46064,17.81,74434.5,1.25,-8.03,-8.71,0,*7E
1536537914.93,46065,17.81,74434.5,1.25,-7.95,-8.71,0,*7F
1536537916.13,46066,17.81,74430.8,1.27,-7.77,-8.67,0,*75
1536537917.36,46067,17.81,74430.0,1.25,-7.91,-8.71,0,*79
1536537918.59,46068,17.81,74434.5,1.25,-8.03,-8.75,0,*76
1536537919.81,46069,17.81,74432.8,1.23,-8.03,-8.75,0,*71
1536537921.05,46070,17.81,74434.0,1.25,-7.95,-8.85,0,*70
1536537922.27,46071,17.81,74432.0,1.23,-8.07,-8.85,0,*73
1536537923.51,46072,17.81,74432.0,1.25,-7.95,-8.75,0,*7D
1536537924.75,46073,17.88,74434.5,1.25,-7.95,-8.85,0,*73
1536537925.98,46074,17.81,74434.5,1.25,-8.03,-8.75,0,*7B
1536537927.21,46075,17.81,74432.5,1.25,-8.07,-8.75,0,*7E
1536537928.43,46076,17.81,74428.0,1.23,-8.03,-8.75,0,*7F
1536537929.64,46077,17.81,74430.0,1.23,-8.03,-8.75,0,*7E
1536537930.87,46078,17.81,74434.0,1.25,-8.03,-8.75,0,*77
1536537932.11,46079,17.81,74432.3,1.25,-8.07,-8.85,0,*7D
1536537933.32,46080,17.81,74434.8,1.23,-8.03,-8.75,0,*76
1536537934.53,46081,17.81,74432.5,1.23,-8.03,-8.75,0,*77
1536537935.77,46082,17.81,74432.3,1.25,-7.95,-8.85,0,*7D
1536537937.0,46083,17.81,74432.3,1.23,-8.07,-8.89,0,*72
1536537938.23,46084,17.81,74432.3,1.23,-8.07,-8.85,0,*79
1536537939.43,46085,17.81,74432.3,1.23,-8.17,-8.85,0,*79
1536537940.64,46086,17.81,74430.3,1.25,-8.17,-8.75,0,*73
1536537941.83,46087,17.81,74430.8,1.23,-8.21,-8.85,0,*7E
1536537943.05,46088,17.81,74430.3,1.25,-8.21,-8.85,0,*77
1536537944.29,46089,17.88,74434.8,1.25,-8.07,-8.89,0,*7E
1536537945.51,46090,17.81,74430.3,1.23,-8.03,-8.85,0,*78
1536537946.75,46091,17.81,74434.0,1.25,-8.03,-8.85,0,*7F
1536537947.96,46092,17.81,74432.8,1.23,-8.03,-8.75,0,*75
1536537949.2,46093,17.81,74432.5,1.25,-8.03,-8.85,0,*7D
1536537950.44,46094,17.81,74434.0,1.25,-8.07,-8.75,0,*71
1536537951.65,46095,17.81,74432.3,1.25,-8.17,-8.85,0,*7E
1536537952.9,46096,17.81,74432.0,1.25,-8.07,-8.85,0,*7C
1536537954.14,46097,17.81,74430.3,1.25,-8.07,-8.75,0,*72
1536537955.37,46098,17.81,74432.8,1.25,-8.03,-8.75,0,*79
1536537956.58,46099,17.81,74434.3,1.25,-8.17,-8.75,0,*7D
1536537957.83,46100,17.81,74430.8,1.25,-8.07,-8.85,0,*72
1536537959.04,46101,17.81,74432.5,1.25,-8.17,-8.85,0,*72
1536537960.26,46102,17.81,74432.5,1.25,-8.17,-8.89,0,*7D
1536537961.46,46103,17.81,74434.5,1.23,-8.17,-8.97,0,*75
1536537962.68,46104,17.81,74434.5,1.23,-8.07,-8.97,0,*73
1536537963.89,46105,17.81,74428.5,1.25,-8.21,-8.97,0,*70
1536537965.1,46106,17.81,74432.5,1.25,-8.21,-8.97,0,*73
1536537966.3,46107,17.81,74432.0,1.23,-8.17,-8.89,0,*7E
1536537967.55,46108,17.88,74434.3,1.25,-8.07,-8.85,0,*7A
1536537968.79,46109,17.81,74430.8,1.25,-8.07,-8.89,0,*77
1536537970.01,46110,17.81,74432.0,1.25,-8.17,-8.89,0,*7E
1536537971.21,46111,17.81,74434.5,1.23,-8.17,-8.97,0,*76
1536537972.42,46112,17.81,74430.5,1.25,-8.21,-8.97,0,*76
1536537973.61,46113,17.81,74432.5,1.23,-8.29,-9.01,0,*77
1536537974.8,46114,17.81,74432.8,1.23,-8.21,-8.97,0,*76
1536537976.0,46115,17.81,74430.3,1.23,-8.21,-9.01,0,*79
1536537977.21,46116,17.81,74432.3,1.25,-8.21,-8.97,0,*72
1536537978.41,46117,17.81,74432.0,1.23,-8.29,-9.01,0,*73
1536537979.61,46118,17.88,74432.8,1.23,-8.21,-9.01,0,*74
1536537980.8,46119,17.81,74432.5,1.23,-8.29,-8.97,0,*73
1536537982.01,46120,17.81,74430.5,1.25,-8.21,-8.97,0,*77
1536537983.25,46121,17.81,74432.8,1.25,-8.29,-9.11,0,*71
1536537984.49,46122,17.81,74430.8,1.25,-8.29,-9.11,0,*72
1536537985.72,46123,17.81,74432.5,1.25,-8.33,-9.11,0,*78
1536537986.96,46124,17.81,74430.0,1.25,-8.29,-9.11,0,*74
1536537988.2,46125,17.88,74436.0,1.25,-8.33,-9.11,0,*7E
1536537989.42,46126,17.81,74432.3,1.23,-8.29,-9.11,0,*70
1536537990.61,46127,17.81,74430.0,1.23,-8.29,-9.01,0,*70
1536537991.83,46128,17.81,74428.3,1.25,-8.21,-9.01,0,*71
1536537993.07,46129,17.81,74434.0,1.25,-8.29,-9.11,0,*79
1536537994.29,46130,17.81,74432.3,1.23,-8.41,-9.15,0,*7D
1536537995.5,46131,17.81,74430.3,1.25,-8.33,-9.01,0,*7A
1536537996.74,46132,17.81,74432.5,1.25,-8.41,-9.15,0,*79
1536537997.93,46133,17.81,74434.8,1.23,-8.45,-9.23,0,*7F
1536537999.17,46134,17.81,74434.3,1.25,-8.45,-9.15,0,*7B
1536538000.41,46135,17.81,74434.0,1.25,-8.41,-9.15,0,*7E
1536538001.64,46136,17.81,74432.5,1.25,-8.33,-9.11,0,*7C
1536538002.88,46137,17.81,74432.5,1.25,-8.41,-9.15,0,*7C
1536538004.1,46138,17.81,74428.0,1.23,-8.41,-9.15,0,*75
1536538005.3,46139,17.81,74428.5,1.23,-8.41,-9.23,0,*71
1536538006.49,46140,17.81,74432.8,1.23,-8.55,-9.23,0,*7A
1536538007.68,46141,17.81,74434.3,1.23,-8.45,-9.23,0,*7A
1536538008.88,46142,17.81,74432.5,1.23,-8.41,-9.23,0,*7D
1536538010.1,46143,17.81,74432.5,1.23,-8.41,-9.15,0,*79
1536538011.33,46144,17.81,74432.3,1.25,-8.45,-9.15,0,*7C
1536538012.53,46145,17.81,74432.8,1.23,-8.45,-9.23,0,*7E
1536538013.72,46146,17.81,74428.8,1.23,-8.45,-9.23,0,*7D
1536538014.94,46147,17.81,74428.8,1.25,-8.45,-9.27,0,*7E
1536538016.13,46148,17.81,74428.0,1.23,-8.45,-9.27,0,*77
1536538017.33,46149,17.81,74434.3,1.23,-8.41,-9.27,0,*72
1536538018.53,46150,17.81,74432.3,1.23,-8.45,-9.27,0,*7E
1536538019.72,46151,17.81,74434.3,1.23,-8.55,-9.27,0,*7E
1536538020.95,46152,17.81,74434.3,1.23,-8.45,-9.37,0,*7D
1536538022.14,46153,17.81,74434.3,1.23,-8.45,-9.27,0,*7D
1536538023.36,46154,17.81,74430.8,1.25,-8.55,-9.23,0,*79
1536538024.56,46155,17.81,74434.0,1.23,-8.45,-9.27,0,*7B
1536538025.78,46156,17.81,74434.3,1.23,-8.55,-9.37,0,*78
1536538027.01,46157,17.81,74432.0,1.23,-8.55,-9.37,0,*79
1536538028.23,46158,17.81,74430.3,1.23,-8.55,-9.37,0,*76
1536538029.46,46159,17.81,74434.0,1.23,-8.55,-9.37,0,*77
1536538030.68,46160,17.81,74432.3,1.23,-8.55,-9.37,0,*7D
1536538031.9,46161,17.81,74432.5,1.23,-8.55,-9.41,0,*7D
1536538033.13,46162,17.81,74432.5,1.23,-8.55,-9.45,0,*7A
1536538034.35,46163,17.81,74434.0,1.23,-8.55,-9.41,0,*7F
1536538035.59,46164,17.81,74434.0,1.25,-8.59,-9.41,0,*72
1536538036.81,46165,17.81,74428.8,1.23,-8.59,-9.45,0,*71
1536538038.05,46166,17.81,74434.3,1.25,-8.59,-9.41,0,*70
1536538039.27,46167,17.81,74432.0,1.23,-8.59,-9.41,0,*77
1536538040.47,46168,17.81,74428.8,1.23,-8.55,-9.27,0,*74
1536538041.71,46169,17.81,74434.0,1.25,-8.55,-9.37,0,*72
1536538042.93,46170,17.81,74434.3,1.23,-8.59,-9.41,0,*71
1536538044.17,46171,17.81,74430.3,1.25,-8.59,-9.53,0,*75
1536538045.41,46172,17.81,74430.0,1.21,-8.75,-9.57,0,*78
1536538046.65,46173,17.81,74432.0,1.21,-8.63,-9.49,0,*71
1536538047.88,46174,17.81,74430.3,1.23,-8.63,-9.53,0,*7F
1536538049.1,46175,17.81,74434.8,1.23,-8.63,-9.45,0,*79
1536538050.32,46176,17.81,74434.8,1.23,-8.63,-9.57,0,*79
1536538051.55,46177,17.81,74434.3,1.23,-8.71,-9.53,0,*7F
1536538052.79,46178,17.81,74434.5,1.21,-8.75,-9.61,0,*77
1536538054.05,46179,17.81,74432.8,1.21,-8.81,-9.57,0,*78
1536538055.28,46180,17.81,74432.8,1.23,-8.71,-9.57,0,*73
1536538056.49,46181,17.81,74434.3,1.23,-8.75,-9.57,0,*76
1536538057.71,46182,17.81,74434.8,1.23,-8.85,-9.57,0,*7A
1536538058.94,46183,17.81,74434.8,1.23,-8.85,-9.57,0,*7B
1536538060.18,46184,17.81,74430.5,1.21,-8.75,-9.61,0,*74
1536538061.44,46185,17.81,74434.3,1.21,-8.81,-9.61,0,*7E
1536538062.7,46186,17.81,74428.0,1.21,-8.81,-9.61,0,*7D
1536538063.95,46187,17.81,74434.3,1.21,-8.89,-9.61,0,*74
1536538065.2,46188,17.81,74432.0,1.21,-8.89,-9.61,0,*7B
1536538066.46,46189,17.81,74428.3,1.21,-8.81,-9.61,0,*72
1536538067.72,46190,17.81,74432.5,1.21,-8.81,-9.61,0,*7A
1536538068.95,46191,17.81,74432.0,1.21,-8.93,-9.71,0,*79
1536538070.17,46192,17.81,74432.3,1.21,-8.93,-9.71,0,*7A
1536538071.4,46193,17.81,74434.8,1.21,-8.93,-9.71,0,*7B
1536538072.62,46194,17.81,74434.3,1.21,-8.93,-9.71,0,*7C
1536538073.85,46195,17.81,74432.0,1.21,-8.93,-9.71,0,*7D
1536538075.06,46196,17.81,74430.8,1.17,-8.97,-9.79,0,*77
1536538076.29,46197,17.81,74432.5,1.21,-8.93,-9.75,0,*7B
1536538077.51,46198,17.81,74434.8,1.17,-9.05,-9.79,0,*73
1536538078.74,46199,17.81,74432.0,1.21,-9.01,-9.71,0,*7B
1536538079.96,46200,17.81,74432.0,1.17,-8.97,-9.75,0,*77
1536538081.18,46201,17.81,74430.0,1.21,-8.89,-9.71,0,*78
1536538082.4,46202,17.81,74428.5,1.17,-8.97,-9.79,0,*79
1536538083.62,46203,17.81,74430.8,1.17,-8.97,-9.75,0,*74
1536538084.84,46204,17.81,74428.5,1.17,-9.05,-9.79,0,*75
1536538086.07,46205,17.81,74434.3,1.21,-9.01,-9.75,0,*79
1536538087.28,46206,17.81,74428.8,1.21,-9.05,-9.89,0,*7D
1536538088.53,46207,17.81,74434.8,1.21,-9.15,-9.89,0,*7D
1536538089.78,46208,17.81,74428.0,1.21,-9.05,-9.83,0,*79
1536538091.0,46209,17.81,74428.0,1.17,-9.05,-9.89,0,*77
1536538092.25,46210,17.81,74430.3,1.17,-9.11,-9.93,0,*71
1536538093.47,46211,17.81,74430.5,1.17,-9.19,-9.93,0,*78
1536538094.72,46212,17.81,74434.3,1.17,-9.11,-9.93,0,*73
1536538095.94,46213,17.81,74432.0,1.17,-9.19,-9.89,0,*71
1536538097.19,46214,17.81,74432.5,1.21,-9.05,-9.83,0,*74
1536538098.44,46215,17.81,74430.8,1.21,-9.15,-9.93,0,*75
1536538099.66,46216,17.81,74428.0,1.17,-9.19,-9.89,0,*74
1536538100.91,46217,17.81,74428.8,1.17,-9.11,-9.89,0,*7D
1536538102.13,46218,17.81,74430.3,1.17,-9.19,-9.93,0,*71
1536538103.35,46219,17.81,74434.8,1.17,-9.19,-9.93,0,*70
1536538104.57,46220,17.81,74428.3,1.17,-9.19,-9.89,0,*71
1536538105.79,46221,17.81,74428.5,1.17,-9.19,-9.93,0,*7B
1536538107.04,46222,17.81,74430.5,1.17,-9.11,-9.93,0,*70
1536538108.27,46223,17.81,74428.0,1.17,-9.19,-9.93,0,*79
1536538109.49,46224,17.81,74426.8,1.17,-9.23,-9.93,0,*77
1536538110.71,46225,17.81,74432.3,1.17,-9.19,-9.93,0,*7F
1536538111.94,46226,17.81,74430.8,1.17,-9.23,-10.01,0,*46
1536538113.17,46227,17.81,74434.3,1.17,-9.19,-10.05,0,*4A
1536538114.4,46228,17.81,74430.5,1.17,-9.23,-10.01,0,*48
1536538115.61,46229,17.81,74432.3,1.21,-9.19,-9.89,0,*7D
1536538116.83,46230,17.81,74428.8,1.21,-9.19,-9.89,0,*75
1536538118.06,46231,17.81,74432.3,1.17,-9.23,-10.01,0,*40